This demonstration page uses our WeatherBlox Daily Observations layout. Learn more.

Left ArrowRight Arrow

38.88101, -77.10428

Hourly Observations for May 30, 2016

Temp ( °F °C ) Dew Point ( °F °C ) Humidity (%) Winds ( mph kmh ) Pressure ( in mb ) Visibility ( mi km ) Precip ( " mm )
12:52 am 00:52 Cloudy 68 20 65 18.3 90 90 NW 5 7 30.04 1017 10 16 0.00 0.03
1:52 am 01:52 Cloudy 69 20.6 66 18.9 90 90 WNW 3 6 30.04 1017 10 16 0.00 0.03
2:37 am 02:37 Cloudy 69 20.6 64 17.8 84 84 Calm 30.03 1017 10 16 0.00 0.00
2:52 am 02:52 Cloudy 70 21.1 65 18.3 84 84 Calm 30.03 1017 10 16 0.00 0.00
3:52 am 03:52 Cloudy 70 21.1 64 17.8 82 82 NNW 7 11 30.01 1016 10 16 0.00 0.00
4:37 am 04:37 Mostly Cloudy 69 20.6 65 18.3 87 87 NNW 3 6 30.00 1016 10 16 0.00 0.00
4:52 am 04:52 Mostly Cloudy 69 20.6 64 17.8 84 84 Calm 30.00 1016 10 16 0.00 0.00
5:52 am 05:52 Mostly Cloudy 69 20.6 65 18.3 87 87 NW 5 7 30.01 1016 10 16 0.00 0.00
6:52 am 06:52 Mostly Cloudy 69 20.6 65 18.3 87 87 E 6 9 30.02 1017 10 16 0.00 0.00
7:52 am 07:52 Cloudy 71 21.7 66 18.9 84 84 Calm 30.03 1017 10 16 0.00 0.00
8:38 am 08:38 Cloudy 73 23 64 18 74 74 N 7 11 30.03 1017 10 16 0.00 0.00
8:52 am 08:52 Cloudy 73 22.8 66 18.9 79 79 N 6 9 30.04 1017 10 16 0.00 0.00
9:23 am 09:23 Mostly Cloudy 74 23.3 66 18.9 76 76 N 6 9 30.03 1017 10 16 0.00 0.00
9:52 am 09:52 Mostly Cloudy 74 23.3 66 18.9 76 76 N 5 7 30.03 1017 10 16 0.00 0.00
10:52 am 10:52 Mostly Cloudy 77 25 65 18.3 66 66 Calm 30.01 1016 10 16 0.00 0.00
11:52 am 11:52 Mostly Cloudy 78 25.6 66 18.9 67 67 Calm 30.00 1016 10 16 0.00 0.00
12:52 pm 12:52 Cloudy 78 25.6 68 20 71 71 S 6 9 29.99 1016 10 16 0.00 0.00
1:52 pm 13:52 Cloudy 79 26.1 68 20 69 69 S 5 7 29.98 1015 10 16 0.00 0.00
2:52 pm 14:52 Cloudy 79 26.1 69 20.6 72 72 S 7 11 29.97 1015 10 16 0.00 0.00
3:52 pm 15:52 Mostly Cloudy 79 26.1 70 21.1 74 74 S 8 13 29.96 1015 10 16 0.00 0.00
4:52 pm 16:52 Cloudy 78 25.6 71 21.7 79 79 S 10 17 29.95 1014 10 16 0.00 0.00
5:52 pm 17:52 Mostly Cloudy 76 24.4 71 21.7 85 85 S 10 17 29.95 1014 10 16 0.00 0.00
6:52 pm 18:52 Mostly Cloudy 75 23.9 71 21.7 88 88 SSE 10 17 29.94 1014 10 16 0.00 0.00
6:59 pm 18:59 Mostly Cloudy 75 23.9 71 21.7 88 88 SSE 10 17 29.94 1014 10 16 0.00 0.00
7:06 pm 19:06 Mostly Cloudy 75 24 72 22 89 89 SSE 9 15 29.94 1014 10 16 0.00 0.00
7:26 pm 19:26 Mostly Cloudy 75 24 72 22 89 89 S 7 11 29.97 1015 10 16 0.00 0.00
7:47 pm 19:47 Mostly Cloudy 75 24 70 21 83 83 S 8 13 29.97 1015 10 16 0.00 0.00
7:52 pm 19:52 Mostly Cloudy 75 23.9 70 21.1 84 84 S 8 13 29.96 1015 10 16 0.00 0.00
8:52 pm 20:52 Mostly Cloudy 74 23.3 70 21.1 88 88 S 10 17 29.97 1015 10 16 0.00 0.00
9:01 pm 21:01 Mostly Cloudy 74 23.3 70 21.1 88 88 S 10 17 29.97 1015 10 16 0.00 0.00
9:04 pm 21:04 Mostly Cloudy 73 23 70 21 89 89 S 12 19 29.97 1015 10 16 0.00 0.00
9:13 pm 21:13 Mostly Cloudy 74 23.3 70 21.1 88 88 S 10 17 29.97 1015 10 16 0.00 0.00
9:15 pm 21:15 Cloudy 74 23.3 70 21.1 88 88 S 12 19 29.97 1015 10 16 0.00 0.00
9:25 pm 21:25 Cloudy 74 23.3 70 21.1 88 88 S 9 15 29.97 1015 10 16 0.00 0.00
9:41 pm 21:41 Cloudy 74 23.3 70 21.1 88 88 S 10 17 30.00 1016 10 16 0.00 0.00
9:52 pm 21:52 Cloudy 74 23.3 70 21.1 88 88 S 12 19 29.99 1016 10 16 0.00 0.00
10:30 pm 22:30 Cloudy 73 23 70 21 89 89 S 10 17 30.00 1016 10 16 0.00 0.00
10:52 pm 22:52 Cloudy 73 22.8 69 20.6 87 87 S 12 19 29.99 1016 10 16 0.00 0.00
11:04 pm 23:04 Cloudy 73 23 70 21 89 89 S 8 13 30.00 1016 10 16 0.00 0.00
11:52 pm 23:52 Mostly Cloudy 72 22.2 68 20 87 87 S 8 13 29.97 1015 10 16 0.00 0.00

Powered by AerisWeather